This is the latest recevied weather packets stored in our database for station/object K8WEH. If no packets are shown the sender has not sent any weather packets the latest 10 day(s).
| Time | Temp. | Humidity | Pressure | Rain* | Wind** | Luminosity | Snow |
|---|---|---|---|---|---|---|---|
| 1777764636 | 9.44° C | 48% | 1018.5 hPa | 0 mm | - | - | - |
| 1777764332 | 9.44° C | 47% | 1018.5 hPa | 0 mm | - | - | - |
| 1777764032 | 9.44° C | 49% | 1018.4 hPa | 0 mm | - | - | - |
| 1777763732 | 10° C | 50% | 1018.6 hPa | 0 mm | - | - | - |
| 1777763432 | 10° C | 50% | 1018.6 hPa | 0 mm | - | - | - |
| 1777763132 | 10° C | 48% | 1018.6 hPa | 0 mm | - | - | - |
| 1777762832 | 10° C | 48% | 1018.6 hPa | 0 mm | - | - | - |
| 1777762532 | 10° C | 47% | 1018.4 hPa | 0 mm | - | - | - |
| 1777762232 | 10° C | 45% | 1018.4 hPa | 0 mm | - | - | - |
| 1777761931 | 10.56° C | 46% | 1018.5 hPa | 0 mm | - | - | - |
| 1777761630 | 10.56° C | 47% | 1018.5 hPa | 0 mm | - | - | - |
| 1777761329 | 10° C | 50% | 1018.4 hPa | 0 mm | - | - | - |
| 1777761029 | 10° C | 48% | 1018.5 hPa | 0 mm | - | - | - |
| 1777760729 | 10° C | 46% | 1018.5 hPa | 0 mm | - | - | - |
| 1777760429 | 10° C | 49% | 1018.5 hPa | 0 mm | - | - | - |
| 1777760129 | 10° C | 50% | 1018.5 hPa | 0 mm | - | - | - |
| 1777759830 | 10° C | 49% | 1018.4 hPa | 0 mm | - | - | - |
| 1777759529 | 10° C | 49% | 1018.4 hPa | 0 mm | - | - | - |
| 1777759231 | 10° C | 49% | 1018.4 hPa | 0 mm | - | - | - |
| 1777758929 | 10° C | 47% | 1018.5 hPa | 0 mm | - | - | - |
| 1777758629 | 10° C | 47% | 1018.4 hPa | 0 mm | - | - | - |
| 1777758327 | 10.56° C | 47% | 1018.2 hPa | 0 mm | - | - | - |
| 1777758028 | 10.56° C | 47% | 1018.2 hPa | 0 mm | - | - | - |
| 1777757727 | 10.56° C | 47% | 1018.2 hPa | 0 mm | - | - | - |
| 1777757430 | 10.56° C | 48% | 1018.1 hPa | 0 mm | - | - | - |
* Rain latest hour (hover to see other rain measurements)
** Current wind speed in m/s (hover to see current wind gust speed)